Temperatures and Conditions from around the state of pennsylvania

NOAA NWS Hourly Roundups by Site

Regional Weather Roundup for State College, PA

To Select Another Site Choose from List

Select Site:  

000
ASUS41 KCTP 150510
RWRCTP

REGIONAL WEATHER ROUNDUP
NATIONAL WEATHER SERVICE STATE COLLEGE PA
1200 AM EST THU NOV 15 2018

Note: "fair" indicates few or no clouds below 12,000 feet with no
significant weather and/or obstructions to visibility.

* = STATION THAT DOES NOT REPORT PRECIPITATION /E.G. RAIN...SNOW...ETC/
    THUNDER OR FOG.

PAZ002>004-007>009-013>016-020>023-029>032-150600-
WESTERN PENNSYLVANIA

CITY           SKY/WX    TMP DP  RH WIND       PRES   REMARKS
ERIE           CLOUDY    29  18  63 SE7       30.48F
MEADVILLE      FAIR      25  17  72 E7        30.43S
FRANKLIN*      FAIR      24  17  74 E6        30.43F
NEW CASTLE     FAIR      27  20  75 NE5       30.45S
BEAVER COUNTY  NOT AVBL
BUTLER*        FAIR      27  20  75 NE8       30.43F
PITTSBURGH INT CLOUDY    29  19  66 NE10      30.40F
PITTSBURGH     FAIR      29  19  66 NE9G16    30.38F
INDIANA*       CLEAR     28  19  69 E7        30.47R
LATROBE        FAIR      30  18  59 NE9       30.41F
WASHINGTON CO* FAIR      30  20  66 NE9       30.40F
$$

PAZ004>006-010>012-017>019-024>028-033>037-041-042-045-046-049>053-150600-
CENTRAL PENNSYLVANIA

CITY           SKY/WX    TMP DP  RH WIND       PRES   REMARKS
BRADFORD       FAIR      19  16  88 E3        30.41F
DUBOIS         FAIR      24  15  68 E7        30.43S
CLEARFIELD     FAIR      26  17  68 E5        30.47S
JOHNSTOWN      FAIR      26  17  68 E7        30.38R
ALTOONA        FAIR      30  18  60 E7        30.46S
STATE COLLEGE  FAIR      27  17  67 CALM      30.49S
WILLIAMSPORT   FAIR      29  17  61 E6        30.54F
SELINSGROVE    FAIR      30  17  58 E5        30.57S
FT INDIANTOWN  FAIR      31  17  57 E7        30.56S
CAPITAL CITY   FAIR      34  17  50 E12       30.56S
HARRISBURG     CLOUDY    34  17  50 E8        30.56R
YORK           FAIR      33  20  58 E6        30.54S
$$

PAZ038>040-043-044-047-048-054-055-060>062-067>071-150600-
EASTERN PENNSYLVANIA

CITY           SKY/WX    TMP DP  RH WIND       PRES   REMARKS
SCRANTON       FAIR      27  16  63 E3        30.53F
MOUNT POCONO   FAIR      21  14  74 N7        30.48R WCI  12
ALLENTOWN      FAIR      31  16  54 NE5       30.58S
QUAKERTOWN*    CLEAR     30  16  55 CALM      30.56F
READING        FAIR      32  19  58 NE3       30.57R
LANCASTER      FAIR      34  20  56 E6        30.57R
COATESVILLE    FAIR      30  18  59 NE3G13    30.56F
POTTSTOWN      NOT AVBL
BLUE BELL      FAIR      32  18  55 NE5       30.59F
DOYLESTOWN     FAIR      31  14  49 N7        30.57R
WILLOW GROVE   NOT AVBL
NORTH PHILA    FAIR      34  18  52 NE7       30.61R
PHILADELPHIA   CLOUDY    34  15  46 NE10      30.60R
$$


 

View Past Reports for State College, PA.

Products Courtesy of NOAA-NWS
NWS Information Parsing Script by Ken True at Saratoga Weather - Script by SE Lincoln Weather.